Regional Weather Roundup
Issued by NWS Goodland, KS

Home | Current Version | Previous Version | Graphics & Text | Print | Product List | Glossary On
Versions: 1 2 3 4 5 6 7 8 9 10 11 12 13 14 15 16 17 18 19 20 21 22 23 24 25 26 27 28 29 30 31 32 33 34 35 36 37 38 39 40 41 42 43 44 45 46 47 48 49 50
000
ASUS43 KGLD 221359
RWRGLD

GOODLAND FORECAST AREA HOURLY WEATHER ROUNDUP
NATIONAL WEATHER SERVICE GOODLAND KS
800 AM MDT FRI AUG 22 2014

...OFFICIAL OBSERVATIONS...

CITY           SKY/WX    TMP DP  RH WIND       PRES   REMARKS
GOODLAND KS    SUNNY     73  56  54 N20G26    30.03F
HILL CITY KS   PTSUNNY   77  68  73 N9        29.93F
IMPERIAL NEB   CLOUDY    68  59  73 N15       30.02F
MCCOOK NEB     PTSUNNY   76  69  79 N12       30.00S
AKRON CO       CLOUDY    60  58  92 N12       30.13R
BURLINGTON CO  MOSUNNY   70  56  61 N16       30.07R
LIMON CO       CLOUDY    62  55  77 N10G20    30.16R
$$

...UNOFFICIAL OBSERVATIONS...

CITY           SKY/WX    TMP DP  RH WIND       PRES   REMARKS
COLBY KS       SUNNY     73  72  94 N12G18    30.03R
LENORA KS        N/A     69  32  25 CALM        N/A
NORTON KS      SUNNY     73  63  68 N9        29.95S
SHARON SPRINGS   N/A     73  62  68 NE12G18     N/A
WAKEENEY KS      N/A     73  69  88 MISG        N/A
KIT CARSON CO    N/A     69  56  64 MISG        N/A
YUMA CO          N/A     64  59  85 N8          N/A
$$



USA.gov is the U.S. government's official web portal to all federal, state and local government web resources and services.